Location: ??
(31.9467°N, 34.8903°E)
Time: 17:00:58
(UTC+00:00)

Cosmos 2219 - Pass Details

Date: 29 October 2020
Orbit: 832 x 862 km, 71.1° (Epoch: 29 November)

Event Time Altitude Azimuth Distance (km) Brightness Sun altitude
Rises 16:26:18 0° 333° (NNW) 3,441 6.7 -20.3°
Reaches altitude 10° 16:28:50 10° 328° (NNW) 2,502 6.0 -20.8°
Maximum altitude 16:34:22 50° 255° (WSW) 1,086 4.1 -22.0°
Drops below altitude 10° 16:39:51 10° 181° (S) 2,483 5.7 -23.2°
Sets 16:42:21 0° 176° (S) 3,412 6.3 -23.7°
